Location: Spondin
(51.8528°N, 111.6118°W)
Time: 17:03:44
(UTC+00:00)

Vanguard 2 Rocket - Pass Details

Date: 04 June 2022
Orbit: 553 x 3323 km, 32.9° (Epoch: 02 July)

Event Time Altitude Azimuth Distance (km) Brightness Sun altitude
Rises 15:49:37 0° 189° (S) 6,300 11.3 39.6°
Reaches altitude 10° 15:55:34 10° 173° (S) 5,705 11.3 40.5°
Maximum altitude 16:06:10 19° 137° (SE) 5,442 11.9 42.1°
Drops below altitude 10° 16:17:36 10° 102° (ESE) 6,264 12.2 43.7°
Sets 16:24:34 0° 87° (E) 7,132 12.1 44.7°
